Location: Banios
(43.0451°N, 0.2335°E)
Time: 12:31:57
(UTC+00:00)

BREEZE-M DEB (TANK) - Pass Details

Date: 25 January 2021
Orbit: 303 x 16780 km, 49.5° (Epoch: 25 February)

Event Time Altitude Azimuth Distance (km) Brightness Sun altitude
Exits shadow 05:38:03 37° 229° (SW) 805 2.8 -18.7°
Maximum altitude 05:39:14 80° 148° (SSE) 636 2.6 -18.5°
Drops below altitude 10° 05:47:00 10° 62° (ENE) 4,051 7.5 -17.1°
Sets 05:53:26 0° 63° (ENE) 6,859 8.7 -16.0°
